BEIDOU-3 M11

Last updated on Wed May 15 2019 03:07:46 GMT+0000 (Coordinated Universal Time)

1 43602U 18067A 19134.73747194 -.00000055 00000-0 00000+0 0 9997 2 43602 54.8623 269.3871 0005241 351.1040 62.6915 1.86231700 4884

Satellite not in orbit

BEIDOU-3 M11